Overview Statistics Trail Chart Weather Telemetry Raw packets
 

This is the latest recevied weather packets stored in our database for station/object VK5GR-12. If no packets are shown the sender has not sent any weather packets the latest 10 day(s).

<< 15 16 17 18 19 20 21 >>
Time Temp. Humidity Pressure Rain* Wind** Luminosity Snow
1788297136 11.11° C 96% 1017.2 hPa 0 mm - 6 W/m² -
1788296234 11.11° C 96% 1016.9 hPa 0 mm - 1 W/m² -
1788295331 11.67° C 96% 1016.8 hPa 0 mm - 0 W/m² -
1788294426 11.11° C 97% 1016.7 hPa 0 mm - 0 W/m² -
1788293523 11.67° C 98% 1016.5 hPa 0 mm - 0 W/m² -
1788292621 11.67° C 98% 1016.6 hPa 0 mm - 0 W/m² -
1788291718 11.67° C 98% 1016.6 hPa 0 mm - 0 W/m² -
1788290814 11.67° C 99% 1016.7 hPa 0 mm - 0 W/m² -
1788289913 11.67° C 99% 1016.3 hPa 0 mm - 0 W/m² -
1788289013 12.22° C 99% 1016.7 hPa 1.78 mm - 0 W/m² -
1788288108 12.22° C 99% 1016.3 hPa 0 mm - 0 W/m² -
1788287206 12.22° C 99% 1016.5 hPa 0 mm - 0 W/m² -
1788286305 12.22° C 99% 1016 hPa 0 mm - 0 W/m² -
1788285404 11.67° C 99% 1016.1 hPa 0 mm - 0 W/m² -
1788284502 11.67° C 99% 1016.2 hPa 0 mm - 0 W/m² -
1788283599 11.67° C 99% 1016.6 hPa 0 mm - 0 W/m² -
1788282697 12.22° C 99% 1016.5 hPa 0 mm - 0 W/m² -
1788281796 12.78° C 99% 1016.8 hPa 0 mm - 0 W/m² -
1788280894 12.78° C 99% 1016.6 hPa 0 mm - 0 W/m² -
1788279990 12.78° C 99% 1016.7 hPa 0 mm - 0 W/m² -
1788279088 13.33° C 99% 1016.7 hPa 0 mm - 0 W/m² -
1788278184 13.33° C 99% 1016.8 hPa 0 mm - 0 W/m² -
1788277280 13.33° C 99% 1016.6 hPa 0 mm - 0 W/m² -
1788276376 12.78° C 99% 1016.6 hPa 0 mm - 0 W/m² -
1788275476 13.33° C 99% 1016.6 hPa 0 mm - 0 W/m² -

* Rain latest hour (hover to see other rain measurements)
** Current wind speed in m/s (hover to see current wind gust speed)